Location: Newark
(40.9833°N, 0.0333°W)
Time: 17:42:10
(UTC+00:00)

Vanguard 2 Rocket - Pass Details

Date: 27 October 2020
Orbit: 554 x 3326 km, 32.9° (Epoch: 24 November)

Event Time Altitude Azimuth Distance (km) Brightness Sun altitude
Rises 21:37:36 0° 262° (W) 3,080 - -50.9°
Reaches altitude 10° 21:39:46 10° 252° (WSW) 2,349 - -51.2°
Maximum altitude 21:44:43 35° 187° (S) 1,624 - -51.9°
Drops below altitude 10° 21:52:35 10° 125° (SE) 3,761 - -53.1°
Sets 21:57:01 0° 119° (ESE) 5,248 - -53.7°
